Home   Weather   Vaduz   Past weeks

Flag for Liechtenstein Past Weather in Vaduz, Liechtenstein — Yesterday and Last 2 Weeks

Now
46 °F

Cool.


Feels Like: 46 °F
Forecast: 41 / 49 °F
Wind: 1 mph from North

Location: Vaduz

Current Time: Apr 26, 2017 at 12:15:51 am

Latest Report: Apr 25, 2017 at 11:00 pm


Visibility: N/A

Pressure: 29.77 "Hg

Humidity: 87%

Dew Point: 42 °F

Location of VaduzLocation

Past Weather in Vaduz — Graph

°F

Vaduz Temperature Yesterday

Maximum temperature yesterday: 64 °F (at 11:00 am)
Minimum temperature yesterday: 47 °F (at 10:00 pm)
Average temperature yesterday: 58 °F

High & Low Weather Summary for the Past Weeks

 TemperatureHumidityPressure
High67 °F (Apr 12, 3:00 pm)97% (Apr 19, 6:00 am)30.62 "Hg (Apr 19, 6:00 am)
Low28 °F (Apr 20, 7:00 am)21% (Apr 21, 3:00 pm)29.70 "Hg (Apr 25, 3:00 pm)
Average48 °F67%30.17 "Hg
* Reported Apr 10 10:00 pm — Apr 25 10:00 pm, Vaduz, Weather by CustomWeather, © 2017

Note: Actual official high and low records may vary slightly from our data, if they occured in-between our weather recording intervals... More about our weather records

Advertising

Vaduz Weather History for the Previous 24 Hours

Scroll right to see more
 ConditionsComfort  
Time TempWeatherWind HumidityBarometerVisibility
10:00 pm
Tue, Apr 25
47 °FCool.5 mph84%29.79 "HgN/A
9:00 pm47 °FCool.7 mph84%29.77 "HgN/A
8:00 pm50 °FRain. Overcast.7 mph81%29.75 "Hg5 mi
7:00 pm53 °FCool.8 mph69%29.74 "HgN/A
6:00 pm54 °FCool.8 mph62%29.73 "HgN/A
5:00 pm56 °FOvercast.9 mph57%29.71 "Hg7 mi
4:00 pm58 °FRefreshingly cool.13 mph56%29.71 "HgN/A
3:00 pm61 °FRefreshingly cool.5 mph55%29.70 "HgN/A
2:00 pm62 °FOvercast.3 mph51%29.70 "Hg5 mi
1:00 pm63 °FMild.6 mph50%29.71 "HgN/A
12:00 pm63 °FMild.8 mph50%29.72 "HgN/A
11:00 am64 °FPartly sunny.8 mph49%29.72 "Hg6 mi
10:00 am62 °FRefreshingly cool.3 mph43%29.73 "HgN/A
9:00 am61 °FRefreshingly cool.6 mph41%29.75 "HgN/A
8:00 am58 °FOvercast.6 mph45%29.75 "Hg5 mi
7:00 am59 °FRefreshingly cool.5 mph43%29.74 "HgN/A
6:00 am58 °FRefreshingly cool.9 mph43%29.75 "HgN/A
5:00 am60 °FPassing clouds.2 mph41%29.75 "Hg9 mi
4:00 am60 °FRefreshingly cool.5 mph41%29.77 "HgN/A
3:00 am60 °FRefreshingly cool.6 mph41%29.78 "HgN/A
2:00 am60 °FRefreshingly cool.5 mph40%29.80 "HgN/A
1:00 am61 °FRefreshingly cool.3 mph39%29.81 "HgN/A
12:00 am61 °FRefreshingly cool.5 mph37%29.82 "HgN/A
Weather by CustomWeather, © 2017

See weather overviewHow to use our weather pages